[[{"header":{"parameterUnit":"m.s-1","parameterCategory":1,"la1":30.2991,"la2":30.254,"lo1":-89.0895,"lo2":-89.0444,"dy":0.0017,"dx":0.0017,"nx":28,"ny":28,"refTime":"2024-05-25T21:00:00:Z","depth":0,"parameterNumber":2,"parameterNumberName":"U-component_of_WINDS"},"data":[0,0,0,0,0,0,0,0,0,0,0,0,0,0,0,0,0,0,0,0,0,0,0,0,0,0,0,0,0,0,0,0,0,0,0,0,0,0,0,0,0,0,0,0,0,0,0,0,0,0,0,0,0,0,0,0,0,0,-2.1478,-2.1477,0,-2.1454,-2.1454,-2.1453,-2.1416,-2.1415,-2.1414,-2.1413,-2.1389,-2.1389,-2.1389,0,0,0,0,0,0,0,0,0,0,0,0,0,-2.1491,-2.1491,-2.1478,-2.1477,-2.1477,-2.1454,-2.1454,-2.1453,-2.1416,-2.1415,-2.1414,-2.1413,-2.1389,-2.1389,-2.1389,0,0,0,0,0,0,0,0,0,0,0,0,0,-2.1478,-2.1491,-2.1478,-2.1455,-2.1453,-2.1454,-2.1454,-2.1453,-2.1416,-2.1415,-2.1414,-2.1413,-2.1389,-2.1389,-2.1389,-2.141,0,0,-2.1389,-2.1389,0,0,0,0,0,0,0,0,-2.1479,-2.1478,-2.1459,-2.1457,-2.1454,-2.1437,-2.1449,-2.1439,-2.1416,-2.143,-2.1413,-2.1412,-2.1406,-2.1404,-2.1402,-2.1408,-2.1407,-2.1389,-2.1389,-2.1389,-2.1389,0,0,0,0,0,0,0,-2.148,-2.1479,-2.1468,-2.1459,-2.1456,-2.1447,-2.1444,-2.1447,-2.1424,-2.1429,-2.1426,-2.1424,-2.1404,-2.1402,-2.1401,-2.1407,-2.1389,-2.1389,-2.1389,-2.1389,-2.1429,-2.143,0,0,0,0,0,0,-2.1484,-2.148,-2.1469,-2.1467,-2.1465,-2.1448,-2.1444,-2.1443,-2.1424,-2.142,-2.1425,-2.1422,-2.1403,-2.1401,-2.14,-2.1422,-2.1389,-2.1389,-2.1389,-2.1428,-2.143,-2.1431,0,0,0,0,0,0,-2.1485,-2.1484,-2.147,-2.1473,-2.147,-2.1448,-2.1448,-2.1443,-2.1441,-2.1421,-2.1416,-2.1426,-2.1402,-2.14,-2.1408,-2.1421,-2.1389,-2.1389,-2.1427,-2.1429,-2.143,-2.1467,0,0,0,0,0,0,-2.1485,-2.1484,-2.1491,-2.1473,-2.147,-2.1477,-2.1449,-2.1444,-2.1441,-2.1438,-2.1421,-2.1418,-2.1401,-2.1408,-2.1408,-2.142,-2.1389,-2.1426,-2.1428,-2.143,-2.1464,-2.1469,-2.1474,0,0,0,0,0,-2.1486,-2.1502,-2.1491,-2.149,-2.1479,-2.1478,-2.1476,-2.1457,-2.1443,-2.1449,-2.1437,-2.1418,-2.142,-2.1409,-2.1408,-2.1421,-2.1425,-2.1427,-2.1429,-2.1462,-2.1468,-2.1474,0,0,0,0,0,0,-2.1522,-2.1499,-2.1487,-2.1498,-2.1491,-2.1472,-2.148,-2.1464,-2.146,-2.1457,-2.1433,-2.143,-2.144,-2.1432,-2.1419,-2.144,-2.142,-2.1422,-2.1444,-2.145,-2.1455,-2.1456,-2.1389,0,0,0,0,0,-2.1531,-2.1532,-2.1513,-2.1525,-2.1521,-2.1502,-2.15,-2.1486,-2.1477,-2.1473,-2.1461,-2.1453,-2.1451,-2.1451,-2.1449,-2.1464,-2.1459,-2.1473,-2.1478,-2.1482,-2.1483,-2.149,-2.1496,-2.1439,-2.1439,-2.1439,0,0,-2.155,-2.1538,-2.154,-2.1531,-2.1523,-2.1525,-2.1499,-2.1502,-2.1503,-2.1474,-2.1479,-2.1471,-2.146,-2.1471,-2.1476,-2.1465,-2.1499,-2.1485,-2.1488,-2.1487,-2.1493,-2.1499,-2.1504,-2.144,-2.144,-2.144,0,0,-2.1584,-2.1576,-2.1585,-2.1578,-2.1566,-2.1554,-2.1556,-2.154,-2.1533,-2.1539,-2.1517,-2.1519,-2.1517,-2.151,-2.1506,-2.1542,-2.1524,-2.1542,-2.1566,-2.1573,-2.1578,-2.1581,-2.1593,-2.1597,-2.1544,-2.1544,-2.1544,0,-2.1609,-2.161,-2.1591,-2.1595,-2.1592,-2.1568,-2.1576,-2.157,-2.1559,-2.1558,-2.1546,-2.1544,-2.1535,-2.1544,-2.1553,-2.1552,-2.1553,-2.1542,-2.1579,-2.1582,-2.1585,-2.1596,-2.16,-2.1546,-2.1546,-2.1546,-2.1545,0,-2.1641,-2.1643,-2.1651,-2.1641,-2.1639,-2.1646,-2.1627,-2.1628,-2.1615,-2.1604,-2.161,-2.16,-2.1594,-2.1596,-2.1584,-2.1604,-2.1597,-2.1583,-2.1561,-2.1593,-2.1602,-2.1606,-2.1549,-2.1548,-2.1548,-2.1547,0,0,-2.1694,-2.1675,-2.1678,-2.1673,-2.166,-2.1661,-2.1667,-2.1663,-2.1663,-2.1658,-2.1661,-2.1662,-2.1649,-2.1645,-2.1631,-2.1638,-2.1665,-2.1622,-2.1622,-2.1629,-2.1686,-2.1696,-2.1701,-2.1655,-2.1656,-2.1656,-2.1687,0,-2.1725,-2.1733,-2.1717,-2.1729,-2.173,-2.1708,-2.1713,-2.1706,-2.1696,-2.1696,-2.1686,-2.1686,-2.1669,-2.1666,-2.1672,-2.1661,-2.1676,-2.1659,-2.1658,-2.1658,-2.1658,-2.1706,-2.1715,-2.1744,-2.169,-2.1691,-2.1691,0,-2.176,-2.1756,-2.1769,-2.1756,-2.1755,-2.176,-2.1755,-2.1756,-2.1748,-2.174,-2.1737,-2.1722,-2.1727,-2.1709,-2.1716,-2.1704,-2.1704,-2.1698,-2.1699,-2.1696,-2.1675,-2.1702,-2.1753,-2.1757,-2.1697,-2.1697,-2.1696,0,-2.1796,-2.1794,-2.1801,-2.1798,-2.1783,-2.1787,-2.1781,-2.1772,-2.1771,-2.1767,-2.1766,-2.1763,-2.1761,-2.1759,-2.1744,-2.1732,-2.1753,-2.1733,-2.1746,-2.1746,-2.1749,-2.1748,-2.1798,-2.1752,-2.1752,-2.1752,-2.1752,0,-2.183,-2.1839,-2.1817,-2.1821,-2.183,-2.1812,-2.1821,-2.1813,-2.1806,-2.1808,-2.179,-2.1793,-2.1773,-2.1774,-2.1763,-2.177,-2.177,-2.1763,-2.176,-2.1763,-2.1764,-2.1761,-2.1757,-2.1753,-2.1753,-2.1753,-2.1753,0,-2.1871,-2.1857,-2.1863,-2.1849,-2.1846,-2.1853,-2.1841,-2.1844,-2.1835,-2.1838,-2.1838,-2.1822,-2.1822,-2.1808,-2.1805,-2.1797,-2.1809,-2.1802,-2.1811,-2.1808,-2.1821,-2.182,-2.1869,-2.1874,-2.1827,-2.1827,-2.1828,0,-2.1892,-2.1898,-2.1885,-2.1885,-2.188,-2.1881,-2.188,-2.1864,-2.1863,-2.1855,-2.186,-2.1858,-2.1856,-2.1858,-2.1846,-2.1844,-2.1837,-2.1854,-2.1836,-2.184,-2.1835,-2.1834,-2.1834,-2.1857,-2.1858,-2.1858,-2.1859,0,-2.1931,-2.1924,-2.1923,-2.192,-2.1919,-2.1916,-2.1911,-2.1913,-2.1895,-2.1895,-2.1895,-2.1894,-2.1892,-2.189,-2.1887,-2.1881,-2.1867,-2.1865,-2.1867,-2.187,-2.1874,-2.1871,-2.1819,-2.1863,-2.1863,-2.1862,-2.1862,-2.1862,-2.1961,-2.1965,-2.1957,-2.1956,-2.1952,-2.1948,-2.1951,-2.1942,-2.1941,-2.1938,-2.1929,-2.1931,-2.1924,-2.1917,-2.1913,-2.1914,-2.1905,-2.1909,-2.191,-2.1911,-2.1912,-2.1876,-2.1914,-2.1913,-2.1913,-2.1913,-2.1913,0,-2.1998,-2.1992,-2.1992,-2.1986,-2.1986,-2.1974,-2.1969,-2.197,-2.1971,-2.1966,-2.1965,-2.1965,-2.1964,-2.1954,-2.1952,-2.1955,-2.1948,-2.1955,-2.1953,-2.1952,-2.1921,-2.1918,-2.196,-2.196,-2.196,-2.196,-2.196,-2.196,-2.2017,-2.2023,-2.2015,-2.2019,-2.2013,-2.2015,-2.2013,-2.201,-2.2005,-2.2007,-2.2006,-2.1999,-2.1992,-2.199,-2.1989,-2.1986,-2.1985,-2.1994,-2.1988,-2.1959,-2.1954,-2.195,-2.1947,-2.1994,-2.1994,-2.2019,-2.2019,-2.2019]},{"header":{"parameterUnit":"m.s-1","parameterCategory":1,"la1":30.2991,"la2":30.254,"lo1":-89.0895,"lo2":-89.0444,"dy":0.0017,"dx":0.0017,"nx":28,"ny":28,"refTime":"2024-05-25T21:00:00:Z","depth":0,"parameterNumber":3,"parameterNumberName":"V-component_of_WINDS"},"data":[0,0,0,0,0,0,0,0,0,0,0,0,0,0,0,0,0,0,0,0,0,0,0,0,0,0,0,0,0,0,0,0,0,0,0,0,0,0,0,0,0,0,0,0,0,0,0,0,0,0,0,0,0,0,0,0,0,0,5.9092,5.9092,0,5.9057,5.9057,5.9056,5.9021,5.902,5.902,5.9019,5.8979,5.8979,5.8978,0,0,0,0,0,0,0,0,0,0,0,0,0,5.9125,5.9125,5.9092,5.9092,5.9091,5.9057,5.9057,5.9056,5.9021,5.902,5.902,5.9019,5.898,5.8979,5.8978,0,0,0,0,0,0,0,0,0,0,0,0,0,5.9102,5.9124,5.9092,5.9069,5.9067,5.9057,5.9057,5.9056,5.9021,5.902,5.902,5.9019,5.898,5.8979,5.8978,5.8986,0,0,5.8975,5.8975,0,0,0,0,0,0,0,0,5.9104,5.9101,5.9073,5.9071,5.9068,5.9043,5.9054,5.9033,5.9021,5.9038,5.9019,5.9019,5.9001,5.8998,5.8993,5.8985,5.8983,5.8975,5.8975,5.8974,5.8974,0,0,0,0,0,0,0,5.9105,5.9102,5.9078,5.9073,5.907,5.906,5.9056,5.905,5.9024,5.9037,5.9034,5.9031,5.8999,5.8994,5.8992,5.8982,5.8975,5.8974,5.8974,5.8973,5.8981,5.8981,0,0,0,0,0,0,5.9111,5.9104,5.9079,5.9077,5.9085,5.906,5.9056,5.9052,5.9024,5.9019,5.9031,5.9029,5.8996,5.8993,5.899,5.8999,5.8974,5.8973,5.8973,5.898,5.8981,5.8981,0,0,0,0,0,0,5.9112,5.9109,5.9081,5.909,5.9085,5.906,5.9056,5.9051,5.9046,5.902,5.9015,5.9031,5.8995,5.8991,5.8988,5.8997,5.8973,5.8972,5.8979,5.898,5.8981,5.9017,0,0,0,0,0,0,5.9113,5.9109,5.9113,5.909,5.9085,5.908,5.9056,5.9051,5.9045,5.9042,5.9018,5.9013,5.8994,5.899,5.8987,5.8996,5.8971,5.8978,5.8979,5.8981,5.9015,5.9019,5.9023,0,0,0,0,0,5.9114,5.9123,5.9113,5.911,5.9089,5.9081,5.9078,5.9057,5.9046,5.9049,5.9032,5.9014,5.8997,5.899,5.8987,5.8995,5.8977,5.8979,5.8981,5.9013,5.9019,5.9023,0,0,0,0,0,0,5.9146,5.912,5.9108,5.9111,5.9099,5.9075,5.9078,5.9063,5.9053,5.905,5.9023,5.9018,5.9018,5.9006,5.8999,5.9002,5.8985,5.8986,5.901,5.9015,5.9019,5.9022,5.897,0,0,0,0,0,5.9154,5.915,5.9127,5.9131,5.9126,5.9103,5.9099,5.9084,5.907,5.9064,5.9047,5.9033,5.9024,5.9019,5.9009,5.9013,5.9008,5.9017,5.9021,5.9025,5.9026,5.9029,5.9033,5.8987,5.8987,5.8987,0,0,5.9168,5.9154,5.9153,5.9137,5.9126,5.9122,5.9099,5.9095,5.9092,5.9063,5.906,5.9047,5.9029,5.903,5.9029,5.902,5.9038,5.9027,5.903,5.9029,5.9031,5.9035,5.9039,5.8988,5.8988,5.8988,0,0,5.9194,5.9183,5.9186,5.9176,5.916,5.9145,5.9146,5.9125,5.9116,5.9112,5.9091,5.9086,5.9071,5.906,5.9053,5.9077,5.906,5.9074,5.9095,5.9098,5.9101,5.9104,5.9114,5.9117,5.9075,5.9075,5.9075,0,5.9215,5.9209,5.9189,5.9188,5.9182,5.9157,5.9159,5.915,5.9131,5.9127,5.9117,5.91,5.9086,5.9085,5.9091,5.9085,5.9085,5.9077,5.9103,5.9106,5.9108,5.9117,5.912,5.9077,5.9077,5.9077,5.9077,0,5.9236,5.9233,5.9237,5.9222,5.9216,5.9216,5.9195,5.9192,5.9178,5.9164,5.9162,5.9145,5.9132,5.9131,5.9116,5.9128,5.9122,5.9108,5.9089,5.9115,5.9123,5.9126,5.908,5.9079,5.9079,5.9078,0,0,5.928,5.9255,5.9257,5.925,5.9231,5.9228,5.9228,5.9217,5.9215,5.9203,5.9202,5.9192,5.9179,5.9171,5.9155,5.9157,5.9179,5.9142,5.9141,5.915,5.9191,5.9203,5.9207,5.9167,5.9168,5.9168,5.9193,0,5.9303,5.9303,5.9285,5.9289,5.9286,5.9263,5.9263,5.9251,5.9238,5.9233,5.9219,5.9212,5.9195,5.919,5.9191,5.9176,5.9186,5.9174,5.9166,5.9166,5.9172,5.9211,5.9223,5.9247,5.9196,5.9196,5.9197,0,5.933,5.9322,5.9327,5.9309,5.9307,5.9308,5.9297,5.9293,5.9279,5.927,5.9262,5.9245,5.9243,5.9226,5.9223,5.9215,5.9211,5.9203,5.9203,5.9202,5.9183,5.9211,5.9254,5.9258,5.9201,5.9201,5.92,0,5.9364,5.9353,5.9355,5.935,5.9329,5.9331,5.9322,5.9307,5.9303,5.9293,5.929,5.928,5.9275,5.9267,5.9248,5.9237,5.9248,5.9229,5.924,5.9241,5.9243,5.9243,5.9287,5.924,5.924,5.924,5.924,0,5.9392,5.9396,5.937,5.9371,5.9375,5.9354,5.9358,5.9347,5.9335,5.9333,5.9312,5.931,5.9285,5.928,5.9265,5.9266,5.9263,5.9255,5.9251,5.9258,5.9259,5.9255,5.9253,5.9241,5.924,5.924,5.924,0,5.943,5.9413,5.9413,5.9394,5.939,5.9394,5.9377,5.9377,5.9364,5.9362,5.936,5.9339,5.9333,5.9313,5.9301,5.9291,5.9297,5.9289,5.9302,5.93,5.9313,5.9312,5.9355,5.936,5.931,5.931,5.9311,0,5.9449,5.9452,5.9434,5.9432,5.9425,5.9422,5.9417,5.9397,5.9393,5.9379,5.9381,5.9374,5.9367,5.9358,5.9341,5.9333,5.9325,5.934,5.9323,5.933,5.9326,5.9326,5.9327,5.9344,5.9345,5.9345,5.9346,0,5.9486,5.9478,5.9473,5.9466,5.9462,5.9455,5.9446,5.9446,5.9423,5.942,5.9415,5.941,5.9399,5.9392,5.9381,5.9371,5.9355,5.9352,5.9354,5.9361,5.9369,5.9366,5.9313,5.9351,5.935,5.935,5.9349,5.9349,5.9516,5.9518,5.9506,5.9502,5.9494,5.9487,5.9486,5.9474,5.9469,5.946,5.9448,5.9445,5.9432,5.9416,5.9407,5.9404,5.9395,5.9398,5.9399,5.94,5.9404,5.9369,5.9402,5.9401,5.9401,5.9401,5.9401,0,5.9552,5.9544,5.954,5.953,5.9527,5.9513,5.9504,5.9502,5.9499,5.9489,5.9484,5.9478,5.9472,5.9455,5.9447,5.9448,5.944,5.9446,5.9446,5.9445,5.9412,5.9411,5.9453,5.9453,5.9453,5.9453,5.9453,5.9453,5.9571,5.9574,5.9565,5.9564,5.9555,5.9552,5.9548,5.9542,5.9534,5.9529,5.9525,5.9514,5.9502,5.9493,5.9487,5.9482,5.948,5.9489,5.9482,5.9452,5.9447,5.9442,5.9441,5.9489,5.9489,5.9515,5.9516,5.9516]}]]